Home   Weather   Florianópolis   Past weeks

Flag for Brazil Past Weather in Florianópolis, Santa Catarina, Brazil — Yesterday and Last 2 Weeks

Now
84 °F

Passing clouds.


Feels Like: 91 °F
Forecast: 74 / 87 °F
Wind: 9 mph from North

Location: Florianopolis Aeroporto

Current Time: Jan 24, 2017 at 1:17:39 pm

Latest Report: Jan 24, 2017 at 12:00 pm


Visibility: N/A

Pressure: 29.86 "Hg

Humidity: 70%

Dew Point: 73 °F

Location of FlorianópolisLocation

Past Weather in Florianópolis — Graph

°F

Florianópolis Temperature Yesterday

Maximum temperature yesterday: 84 °F (at 2:00 pm)
Minimum temperature yesterday: 72 °F (at 6:00 am)
Average temperature yesterday: 77 °F

High & Low Weather Summary for the Past Weeks

 TemperatureHumidityPressure
High91 °F (Jan 9, 6:00 pm)100% (Jan 10, 10:00 pm)30.09 "Hg (Jan 10, 10:00 pm)
Low68 °F (Jan 20, 7:00 am)22% (Jan 11, 5:00 pm)29.53 "Hg (Jan 17, 4:00 pm)
Average79 °F84%29.87 "Hg
* Reported Jan 9 12:00 pm — Jan 24 12:00 pm, Florianópolis, Weather by CustomWeather, © 2017

Note: Actual official high and low records may vary slightly from our data, if they occured in-between our weather recording intervals... More about our weather records

Advertising

Florianópolis Weather History for the Previous 24 Hours

Scroll right to see more
 ConditionsComfort  
Time TempWeatherWind HumidityBarometerVisibility
12:00 pm
Tue, Jan 24
84 °FPassing clouds.9 mph70%29.86 "HgN/A
11:00 am82 °FPassing clouds.7 mph74%29.89 "HgN/A
10:00 am81 °FSunny.8 mph79%29.89 "Hg10 mi
9:00 am77 °FSunny.6 mph94%29.89 "Hg10 mi
8:00 am77 °FSunny.5 mph94%29.89 "Hg10 mi
7:00 am73 °FSunny.5 mph100%29.86 "Hg10 mi
6:00 am73 °FClear.6 mph100%29.86 "Hg10 mi
5:00 am73 °FPassing clouds.5 mph100%29.86 "HgN/A
4:00 am73 °FPassing clouds.3 mph100%29.86 "HgN/A
3:00 am73 °FPassing clouds.3 mph100%29.89 "HgN/A
2:00 am73 °FPassing clouds.No wind100%29.89 "HgN/A
1:00 am75 °FPassing clouds.3 mph100%29.92 "HgN/A
12:00 am75 °FPassing clouds.3 mph100%29.92 "HgN/A
11:00 pm
Mon, Jan 23
75 °FPassing clouds.5 mph100%29.92 "HgN/A
10:00 pm75 °FPassing clouds.3 mph100%29.92 "HgN/A
9:00 pm77 °FLight rain. Partly cloudy.2 mph100%29.89 "HgN/A
8:20 pm79 °FRain. Partly cloudy.7 mph94%N/A3 mi
8:00 pm79 °FScattered showers. Broken clouds.3 mph94%N/AN/A
7:00 pm79 °FBroken clouds.7 mph94%29.89 "HgN/A
6:00 pm81 °FBroken clouds.7 mph89%29.89 "HgN/A
5:07 pm81 °FThunderstorms. Partly sunny.9 mph89%29.89 "HgN/A
5:00 pm81 °FScattered showers. Partly sunny.10 mph89%29.89 "HgN/A
4:00 pm82 °FScattered clouds.12 mph84%29.89 "HgN/A
3:00 pm84 °FScattered clouds.12 mph79%29.89 "HgN/A
2:00 pm84 °FScattered clouds.9 mph84%29.89 "HgN/A
1:00 pm81 °FPartly sunny.9 mph89%29.92 "HgN/A
Weather by CustomWeather, © 2017

See weather overviewHow to use our weather pages